User: anonymous   Login
Location: Unspecified
(0.0000°N, 0.0000°E)
Time: 06:37:56
(UTC+00:00)
Language:

DX 1 - Orbit

View from above orbital plane
View from above orbital plane
View from above satellite
View from above satellite

Ground track
Ground track

The orbit data is extracted from the following two-line orbital elements,

1 40071U 14037C   19082.75201835  .00000099  00000-0  20198-4 0  9990
2 40071  98.4108 232.2644 0009460 136.9186 223.2766 14.81244353254385
Epoch (UTC): 23 March 2019 18:02:54
Eccentricity: 0.0009460
inclination: 98.4108°
perigee height: 619 km
apogee height: 632 km
right ascension of ascending node: 232.2644°
argument of perigee: 136.9186°
revolutions per day: 14.81244353
mean anomaly at epoch: 223.2766°
orbit number at epoch: 25438

The dashed part of the orbit path shows where the satellite is in the earth's shadow,  

DLR